Flag for U.S.A. Weather past 2 weeks in Fort Bragg, California, U.S.A.

Now
54 °F

Light rain. Fog.


Feels Like: 53 °F
Forecast: 57 / 60 °F
Wind: 5 mph from South

Location: Ukiah Municipal

Current Time: Dec 20, 2014 at 7:23:25 PM

Latest Report: Dec 20, 2014 at 6:56 PM


Visibility: 5 mi

Pressure: 30.18 "Hg

Humidity: 93%

Dew point: 52 °F

Location of Fort BraggLocation

Historic Weather in Fort Bragg — Graph

°F

Fort Bragg temperature yesterday

Maximum temperature yesterday: 58 °F (at 1:56 PM)
Minimum temperature yesterday: 50 °F (at 11:56 PM)
Average temperature yesterday: 53 °F

Past Weeks' High & Low Weather Summary

 TemperatureHumidityPressure
High62 °F (Dec 9, 2:56 PM)97% (Dec 6, 5:56 AM)30.23 "Hg (Dec 6, 5:56 AM)
Low44 °F (Dec 14, 4:56 AM)64% (Dec 14, 12:56 PM)29.38 "Hg (Dec 11, 5:56 AM)
Average52 °F88%30.00 "Hg
* Reported Dec 5 5:56 PM — Dec 20 5:56 PM, Fort Bragg, Weather by CustomWeather, © 2014

Note: Actual official high and low records may vary slightly from our data, if they occured in-between our weather recording intervals... More about our weather records

Advertising

Fort Bragg weather history for previous 24 hours

 ConditionsComfort  
Time TempWeatherWind HumidityBarometerVisibility
5:56 PM
Dec 20
54 °FLight rain. Fog.8 mph93%30.16 "Hg3 mi
5:04 PM54 °FLight rain. Fog.8 mph93%30.17 "Hg3 mi
4:56 PM54 °FLight rain. Fog.8 mph93%30.16 "Hg2 mi
3:56 PM54 °FLight rain. Fog.7 mph93%30.14 "Hg2 mi
2:56 PM54 °FLight rain. Fog.6 mph93%30.14 "Hg2 mi
1:56 PM54 °FLight rain. Fog.9 mph90%30.12 "Hg5 mi
12:56 PM54 °FLight rain. Cloudy.9 mph90%30.13 "Hg10 mi
11:56 AM54 °FLight rain. Fog.8 mph90%30.17 "Hg3 mi
10:56 AM54 °FMore clouds than sun.7 mph90%30.17 "Hg10 mi
9:58 AM53 °FFog.5 mph93%30.18 "Hg3 mi
8:56 AM52 °FLight rain. Overcast.5 mph93%30.16 "Hg8 mi
8:03 AM51 °FLight rain. Fog.3 mph96%30.15 "Hg2 mi
7:56 AM51 °FLight rain. Fog.No wind96%30.14 "Hg2 mi
6:56 AM51 °FLight rain. Mostly cloudy.No wind92%30.11 "Hg8 mi
5:56 AM50 °FLight rain. Mostly cloudy.No wind96%30.11 "Hg7 mi
4:56 AM50 °FLow clouds.No wind96%30.10 "Hg9 mi
3:56 AM51 °FLight rain. Mostly cloudy.5 mph89%30.13 "Hg10 mi
2:56 AM51 °FMostly cloudy.No wind89%30.13 "Hg10 mi
1:56 AM51 °FMostly cloudy.No wind92%30.12 "Hg10 mi
12:56 AM50 °FMostly cloudy.No wind93%30.13 "Hg10 mi
11:56 PM
Dec 19
50 °FOvercast.No wind93%30.12 "Hg10 mi
10:56 PM51 °FOvercast.No wind89%30.13 "Hg10 mi
9:56 PM51 °FOvercast.No wind89%30.14 "Hg10 mi
8:56 PM51 °FMostly cloudy.3 mph89%30.13 "Hg10 mi
7:56 PM52 °FPartly cloudy.No wind89%30.10 "Hg9 mi
Weather by CustomWeather, © 2014

See weather overviewHow to use our weather pages